Weather History for KBUR - September, 2012

Change the Weather History Date:

Sunday, September 9, 2012

  Actual Average Record
Temperature  
Mean Temperature 85 °F 74 °F  
Max Temperature 98 °F 88 °F 112 °F (1979)
Min Temperature 72 °F 61 °F 48 °F (1978)
Degree Days  
Heating Degree Days 0 0  
Month to date heating degree days 0 0  
Since 1 July heating degree days 0 0  
Cooling Degree Days 20 9  
Month to date cooling degree days 133 89  
Year to date cooling degree days 1151 971  
Growing Degree Days 34 (Base 50)    
Moisture  
Dew Point 59 °F    
Average Humidity 46    
Maximum Humidity 66    
Minimum Humidity 25    
Precipitation  
Precipitation 0.00 in 0.01 in 0.03 in (1982)
Month to date precipitation T 0.02  
Year to date precipitation 5.48 12.66  
Since 1 July precipitation T 0.11  
Sea Level Pressure  
Sea Level Pressure 29.82 in    
Wind  
Wind Speed 5 mph (SE)    
Max Wind Speed 14 mph    
Max Gust Speed 22 mph    
Visibility 10 miles    
Events      
T = Trace of Precipitation, MM = Missing Value Source: NWS Daily Summary

Daily Weather History Graph

Daily Weather History Graph

Search for Another Location

Airport or City:

Trip Planner

Search our weather history database for the weather conditions in past years. The results will help you decide how hot, cold, wet, or windy it might be!

Date:

Astronomy

Sep. 09, 2012 Rise Set
Actual Time 6:32 AM PDT 7:07 PM PDT
Civil Twilight 6:07 AM PDT 7:32 PM PDT
Nautical Twilight 5:37 AM PDT 8:02 PM PDT
Astronomical Twilight 5:07 AM PDT 8:32 PM PDT
Moon 12:17 AM PDT (9/9) 2:45 PM PDT (9/9)
Length of Visible Light 13h 25m
Length of Day
12h 34m
Last Quarter, 38% of the Moon is Illuminated
Sep 9
Last Quarter
Sep 15
New
Sep 22
First Quarter
Sep 29
Full
Oct 8
Last Quarter

Hourly Weather History & Observations

Time (PDT) Temp. Heat Index Dew Point Humidity Pressure Visibility Wind Dir Wind Speed Gust Speed Precip Events Conditions
12:53 AM 73.0 °F - 57.9 °F 59% 29.85 in 10.0 mi Calm Calm - N/A   Clear
1:53 AM 73.0 °F - 59.0 °F 61% 29.83 in 10.0 mi Calm Calm - N/A   Clear
2:53 AM 73.9 °F - 59.0 °F 59% 29.83 in 10.0 mi Calm Calm - N/A   Clear
3:53 AM 73.0 °F - 60.1 °F 64% 29.84 in 10.0 mi Calm Calm - N/A   Clear
4:53 AM 73.0 °F - 59.0 °F 61% 29.82 in 10.0 mi Calm Calm - N/A   Clear
5:53 AM 73.0 °F - 59.0 °F 61% 29.82 in 10.0 mi WNW 3.5 mph - N/A   Clear
6:53 AM 72.0 °F - 59.0 °F 64% 29.83 in 10.0 mi Calm Calm - N/A   Clear
7:53 AM 73.9 °F - 60.1 °F 62% 29.84 in 10.0 mi Calm Calm - N/A   Clear
8:53 AM 78.1 °F - 60.1 °F 54% 29.84 in 10.0 mi Calm Calm - N/A   Clear
9:53 AM 84.0 °F 84.0 °F 60.1 °F 44% 29.85 in 10.0 mi SSE 3.5 mph - N/A   Clear
10:53 AM 88.0 °F 87.6 °F 60.1 °F 39% 29.84 in 10.0 mi East 4.6 mph - N/A   Clear
11:53 AM 93.0 °F 93.0 °F 61.0 °F 34% 29.83 in 10.0 mi ESE 9.2 mph 19.6 mph N/A   Clear
12:53 PM 93.0 °F 93.8 °F 62.1 °F 36% 29.83 in 10.0 mi South 5.8 mph - N/A   Clear
1:53 PM 97.0 °F 95.3 °F 55.9 °F 25% 29.81 in 10.0 mi South 8.1 mph - N/A   Clear
2:53 PM 95.0 °F 96.0 °F 63.0 °F 34% 29.78 in 10.0 mi SSE 6.9 mph - N/A   Partly Cloudy
3:53 PM 97.0 °F 97.8 °F 62.1 °F 31% 29.76 in 10.0 mi SE 12.7 mph 17.3 mph N/A   Clear
4:53 PM 93.9 °F 92.2 °F 55.9 °F 28% 29.75 in 10.0 mi SSE 8.1 mph - N/A   Clear
5:53 PM 93.0 °F 91.1 °F 55.0 °F 28% 29.76 in 10.0 mi South 6.9 mph - N/A   Clear
6:53 PM 88.0 °F 86.9 °F 57.9 °F 36% 29.78 in 10.0 mi SSE 5.8 mph - N/A   Clear
7:53 PM 82.9 °F 82.8 °F 59.0 °F 44% 29.81 in 10.0 mi SE 13.8 mph 21.9 mph N/A   Scattered Clouds
8:53 PM 82.0 °F 82.0 °F 57.9 °F 44% 29.85 in 10.0 mi ESE 10.4 mph - N/A   Clear
9:53 PM 77.0 °F - 59.0 °F 54% 29.87 in 10.0 mi SSE 8.1 mph - N/A   Clear
10:53 PM 75.0 °F - 61.0 °F 62% 29.88 in 10.0 mi East 5.8 mph - N/A   Partly Cloudy
11:53 PM 75.0 °F - 60.1 °F 60% 29.90 in 10.0 mi ESE 10.4 mph - N/A   Clear